ANDURIL-216

导读

ANDURIL-216(NORAD 69879)是美国国防科技企业安杜里尔工业推出的首颗太空态势感知试验卫星,2025年底发射入轨。该卫星依托安杜里尔核心的Lattice人工智能软件系统,搭载成像、电子战模块,可实现在轨传感器数据实时处理、卫星自主协调、弹性通信等功能,主要用于太空目标监测、在轨资产防御相关技术验证,是美国民营军工企业入局太空态势感知领域的代表性试验平台,当前处于在轨测试阶段,相关技术将服务于美军太空作战相关能力建设。

Basic Information
目录编号:
69879
目录名称:
ANDURIL-216
国际标识:
2026-156L
轨道中心:
EARTH
卫星名称:
ANDURIL-216
卫星全名:
ANDURIL-216
卫星状态:
在轨 (已飞行60 天)
发射日期:
2026-07-07 UTC
国别 :
美国 (US)
星等 :
--
Orbit Information
数据来源 国际轨道数据
星历时间: 2026-09-05T12:23:24+0800
6小时前
查看轨道信息
半长轴: 6971.071km
偏心率: 0.0004578
轨道倾角: 97.748°
近地点辐角 323.141°
升交点赤经 147.630°
平近点角 36.950°
近地点: 589.742km
远地点: 596.126km
周期: 96.540分钟
每日圈数: 14.916041
Detailed Information
使用方式:
暂无
2D Orbit Map
3D Orbit Map
Orbit Altitude Analysis Chart
Orbit Inclination Analysis Chart
Orbit Comprehensive Analysis Chart
View Comprehensive Chart
Conjunction Data List
Event ID Objects TCA Miss Dist (km) Collision Risk Probability Collision Risk Index (CRI) Action
CDM_260905-042605-358706-987923
2026-09-05T
04:26:47+0000
2.636 km
极远距离
1.617034E-6 低风险 0.39
CDM_260831-214600-895606-987927
2026-08-31T
21:46:41+0000
2.570 km
极远距离
1.208002E-6 低风险 0.37
CDM_260906-160104-163406-987925
SJ 16-02 (41634)
2026-09-06T
16:01:07+0000
2.116 km
极远距离
1.183802E-6 低风险 0.36
CDM_260906-144901-578306-987924
2026-09-06T
14:49:14+0000
2.623 km
极远距离
8.992045E-7 极低风险 0.34